Home > Time Zones > World Clock > Weather > Belgium > Spa > Past weeks

Flag for Belgium Weather past 2 weeks in Spa, Belgium

Now
74 °F

Sunny.


Feels Like: 77 °F
Forecast: 56 / 71 °F
Wind: 5 mph from Northeast

Location: Spa / La Sauveniere

Current Time: Jul 24, 2014 at 6:32:12 PM

Latest Report: Jul 24, 2014 at 5:00 PM


Visibility: 19 mi

Pressure: 29.92 "Hg

Humidity: 49%

Dew point: 54 °F

Location of SpaLocation

Historic Weather in Spa — Graph

°F

Spa temperature yesterday

Maximum temperature yesterday: 79 °F (at 6:00 PM)
Minimum temperature yesterday: 62 °F (at 1:00 AM)
Average temperature yesterday: 70 °F

Past Weeks' High & Low Weather Summary

 TemperatureHumidityPressure
High87 °F (Jul 18, 6:00 PM)100% (Jul 9, 5:00 PM)30.22 "Hg (Jul 9, 5:00 PM)
Low52 °F (Jul 15, 3:00 AM)32% (Jul 18, 4:00 PM)29.74 "Hg (Jul 9, 7:00 PM)
Average65 °F78%29.98 "Hg
* Reported Jul 9 5:00 PM — Jul 24 5:00 PM, Spa, Weather by CustomWeather, © 2014

Note: Actual official high and low records may vary slightly from our data, if they occured in-between our weather recording intervals... More about our weather records

Advertising

Spa weather history for previous 24 hours

 ConditionsComfort  
Time TempWeatherWind HumidityBarometerVisibility
5:00 PM
Jul 24
74 °FSunny.5 mph49%29.92 "Hg19 mi
4:00 PM74 °FSunny.3 mph49%29.92 "Hg16 mi
3:00 PM74 °FSunny.5 mph51%29.93 "Hg14 mi
2:00 PM72 °FScattered clouds.5 mph56%29.94 "Hg19 mi
1:00 PM72 °FPassing clouds.5 mph58%29.95 "Hg18 mi
12:00 PM70 °FPassing clouds.3 mph72%29.96 "Hg13 mi
11:00 AM70 °FScattered clouds.3 mph74%29.96 "Hg13 mi
10:00 AM71 °FSunny.1 mph57%29.96 "Hg19 mi
9:00 AM71 °FSunny.1 mph60%29.96 "Hg19 mi
8:00 AM67 °FSunny.N/A73%29.96 "Hg22 mi
7:00 AM64 °FSunny.3 mph68%29.97 "Hg25 mi
6:00 AM62 °FSunny.1 mph79%29.98 "Hg25 mi
5:00 AM65 °FClear.3 mph71%29.97 "Hg28 mi
4:00 AM67 °FClear.5 mph67%29.97 "Hg25 mi
3:00 AM66 °FClear.3 mph71%29.99 "Hg25 mi
2:00 AM67 °FClear.5 mph68%30.00 "Hg25 mi
1:00 AM69 °FClear.3 mph68%30.00 "Hg22 mi
12:00 AM68 °FClear.2 mph72%30.01 "Hg22 mi
11:00 PM
Jul 23
69 °FClear.3 mph71%30.01 "Hg22 mi
10:00 PM69 °FClear.2 mph66%30.01 "Hg25 mi
9:00 PM71 °FSunny.2 mph59%30.00 "Hg22 mi
8:00 PM75 °FSunny.3 mph54%29.98 "Hg19 mi
7:00 PM75 °FSunny.6 mph58%29.99 "Hg19 mi
6:00 PM79 °FSunny.5 mph44%29.97 "Hg22 mi
Weather by CustomWeather, © 2014

See weather overviewHow to use our weather pages